Pagina principale
METAR-TAF:

METAR-TAF

Aeroporti :

Kélibia, Tunisia

latitudine: 36-51N, longitudine: 011-05E, altezza: 29 m

Osservazione

Il bollettino è stato emesso 21 minuti fa, alle 13:00 UTC
Vento 7 kt da ovest/nord-ovest
Temperature 30°C
Umidità 66%
Pressione 1018 hPa
Visibilità 10 km o più
Nubi sparse ad un'altezza di 2000 ft

METAR: DTTL 271300Z 29007KT 9999 SCT020 30/23 Q1018

Ora: 14:21 (13:21 UTC)


TAF: mancante

Osservazioni e previsioni meteorologiche di più di 4000 aeroporti (messaggi METAR e TAF).

Le stazioni disponibili sono rappresentate dai dischi gialli e rossi sulla carta.

Puntare il mouse per vedere il nome della stazione.

Clicca sopra per visualizzare le osservazioni e previsioni meteorologiche.

Per cambiare la mappa : fare clic sui pulsanti verdi con una croce nera per ingrandire, il pulsante verde con un trattino per diminuire, o sulla freccia verde per le mappe adiacenti.


METAR-TAF: